sat.trackr.live / text

‹ back to catalog

STARLINK-35396

NORAD 65828 · 2025-221F

PAYLOAD ACTIVE UNKNOWN

§ Identity

Operator
Country
US
Launch date
2025-09-29
Launch site
AFWTR
Launch vehicle
Mass (kg)
RCS (m²)

Purposes: comms

External: N2YO · Heavens-Above · Gunter

§ Orbital elements

Epoch: 2026-09-20T23:08:55.645152Z

Period
93.85 min
Inclination
53.1588°
Eccentricity
0.0001557
Mean motion
15.34398234 rev/d
Perigee alt
461.6 km
Apogee alt
463.8 km
Semi-major
6,840.8 km
B*
5.0511e-4
RAAN
257.5720°
Arg perigee
85.4734°
Mean anomaly
274.6447°
Rev number
5,603

§ Raw data

STARLINK-353961 65828U 25221F   26263.96453293  .00016727  00000+0  50511-3 0  99982 65828  53.1588 257.5720 0001557  85.4734 274.6447 15.34398234 56038

JSON: /api/v1/satellites/65828 · /tle

For live sub-satellite position, see the globe view (requires WebGL).

§ Visibility from observer

Set your observer location to see the next 7 days of passes ≥ 10°. The values pass through the URL so the page stays shareable.

No JS? Fill the form by hand. The geolocation button needs JavaScript.